Total_Precipitation_Accumulation
0.11 0.31 0.60 0.96 1.74 1.88 1.27 0.76 0.59 0.48 0.47 0.43 0.43 0.44 0.58 0.87 1.28 1.85 1.31 0.89 0.92 1.07 1.30 1.69 1.89 1.68 1.61 1.53 1.62 1.65 1.55 1.42 1.34 1.35 1.35 1.30 1.22 1.06 0.91 0.83 0.82 0.84 0.80 0.73 0.82 0.85 0.79 0.87 0.99
0.25 0.47 0.70 1.22 1.78 1.38 0.98 0.69 0.57 0.39 0.38 0.42 0.56 0.61 0.56 0.70 0.69 0.85 1.04 0.99 0.81 0.96 1.24 1.36 1.67 1.60 1.54 1.47 1.53 1.50 1.42 1.27 1.26 1.21 1.17 1.13 1.12 0.99 0.81 0.76 0.77 0.79 0.75 0.76 0.87 0.88 0.85 0.85 0.93
0.38 0.55 0.85 1.33 1.21 0.75 0.61 0.49 0.40 0.37 0.43 0.52 0.63 0.69 0.70 0.80 0.73 0.91 1.06 0.89 0.83 0.92 1.19 1.48 1.59 1.43 1.40 1.33 1.33 1.30 1.29 1.25 1.21 1.14 1.12 1.04 0.99 0.93 0.81 0.77 0.77 0.79 0.79 0.78 0.83 0.92 0.92 0.90 0.92
0.46 0.68 0.84 0.94 0.63 0.34 0.26 0.28 0.30 0.41 0.59 0.80 0.84 0.88 0.86 0.78 0.79 0.92 1.03 0.83 0.78 0.77 0.88 1.22 1.36 1.25 1.30 1.23 1.15 1.18 1.24 1.28 1.21 1.11 1.04 1.02 1.01 0.98 0.85 0.76 0.76 0.82 0.84 0.83 0.87 1.00 1.01 0.92 0.92
0.44 0.75 1.00 0.75 0.38 0.27 0.21 0.22 0.32 0.47 0.66 0.82 0.90 1.09 1.23 1.04 0.88 0.95 0.89 0.80 0.71 0.70 0.77 0.99 1.25 1.16 1.16 1.14 1.10 1.12 1.20 1.26 1.13 1.02 0.92 0.96 1.00 0.93 0.83 0.80 0.79 0.79 0.82 0.85 0.93 1.00 1.00 0.99 1.04
0.55 0.83 0.81 0.55 0.30 0.22 0.23 0.26 0.32 0.45 0.63 0.81 1.14 1.35 1.49 1.36 1.19 1.06 0.90 0.97 0.84 0.70 0.70 0.89 1.19 1.18 1.15 1.14 1.14 1.20 1.22 1.12 1.02 0.95 0.89 0.89 0.91 0.89 0.86 0.87 0.89 0.82 0.84 0.91 0.95 0.96 0.92 0.98 1.11
0.48 0.62 0.50 0.35 0.28 0.22 0.22 0.25 0.33 0.48 0.64 0.89 1.23 1.47 1.51 1.50 1.34 1.16 1.04 1.11 1.16 0.99 0.93 0.93 1.01 1.08 1.11 1.26 1.33 1.35 1.27 1.06 0.99 0.97 0.93 0.87 0.84 0.83 0.83 0.94 0.96 0.89 0.89 0.95 0.99 0.98 1.00 1.07 1.16
0.30 0.42 0.33 0.22 0.25 0.24 0.21 0.24 0.36 0.58 0.75 0.97 1.20 1.42 1.64 1.43 1.24 1.29 1.49 1.68 1.80 1.67 1.52 1.28 1.13 1.20 1.10 1.15 1.33 1.44 1.18 1.00 0.98 1.02 0.98 0.96 1.01 1.00 1.08 1.05 1.01 1.04 1.09 1.13 1.21 1.15 1.12 1.24 1.33
0.24 0.38 0.27 0.12 0.15 0.21 0.20 0.24 0.33 0.42 0.62 0.87 1.09 1.21 1.19 1.17 1.31 1.57 2.00 2.14 2.00 2.06 1.88 1.71 1.54 1.34 1.30 1.23 1.24 1.51 1.30 1.14 1.23 1.40 1.35 1.40 1.71 1.63 1.71 1.39 1.30 1.40 1.56 1.61 1.67 1.66 1.59 1.53 1.48
0.20 0.27 0.15 0.07 0.04 0.08 0.15 0.23 0.32 0.44 0.87 1.47 1.47 1.19 1.02 1.21 1.46 1.68 2.03 2.33 1.99 2.06 1.84 1.84 1.84 1.54 1.38 1.36 1.65 2.08 1.78 1.70 1.75 1.97 1.85 2.15 2.27 2.15 1.60 1.63 1.84 1.95 2.28 2.40 2.46 2.51 2.24 1.93 1.78
0.16 0.14 0.09 0.04 0.03 0.03 0.07 0.15 0.25 0.49 0.97 1.68 1.86 1.44 1.27 1.38 1.76 1.77 2.02 2.25 2.23 2.15 2.05 1.83 2.07 1.80 1.70 1.87 2.01 2.19 2.25 2.18 2.14 2.21 2.20 2.45 2.25 1.95 1.86 2.18 2.56 2.74 2.90 3.06 3.10 3.02 2.55 2.48 2.66
0.10 0.07 0.04 0.03 0.02 0.03 0.11 0.20 0.30 0.39 0.81 1.16 1.16 1.06 1.23 1.45 1.81 2.03 2.08 2.31 2.36 2.25 2.20 2.15 2.23 2.18 2.15 2.17 2.14 2.03 1.84 1.86 2.01 2.17 2.15 2.35 2.45 2.47 2.44 2.62 2.74 2.97 3.34 3.72 3.64 3.60 3.32 3.26 3.06
0.07 0.09 0.09 0.05 0.05 0.06 0.12 0.17 0.29 0.45 0.56 0.69 0.66 0.87 1.31 1.59 1.98 2.32 2.67 2.89 2.94 2.89 2.77 2.78 2.90 2.75 2.54 2.47 2.18 1.80 1.71 1.62 1.69 1.80 1.94 1.95 2.29 2.59 2.63 2.48 2.52 2.48 2.71 3.15 3.70 3.62 3.80 3.74 3.37
0.06 0.06 0.08 0.07 0.06 0.07 0.12 0.17 0.32 0.54 0.55 0.65 0.81 1.05 1.44 1.89 2.26 2.52 3.28 3.68 3.91 3.85 3.69 3.50 3.58 3.16 2.84 2.60 2.24 1.99 1.76 1.80 1.73 1.65 1.66 1.86 2.12 2.39 2.36 2.33 2.53 2.58 2.51 2.67 3.11 3.28 3.66 3.64 3.26
0.11 0.13 0.12 0.10 0.07 0.08 0.14 0.33 0.48 0.61 0.80 0.83 1.00 1.21 1.54 2.13 2.60 3.06 3.60 4.35 4.79 4.96 4.58 4.00 3.74 3.43 3.17 2.91 2.44 2.07 1.89 1.70 1.81 1.85 1.77 1.82 1.92 2.09 2.06 2.16 2.18 2.26 2.17 2.25 2.47 2.70 2.96 2.93 2.79
0.14 0.24 0.30 0.17 0.11 0.11 0.18 0.59 0.74 0.64 0.95 1.28 1.20 1.46 1.85 2.38 2.86 3.53 4.22 5.05 5.59 5.77 5.18 4.47 3.77 3.78 3.64 3.35 2.69 2.21 1.95 1.87 1.84 1.79 1.65 1.55 1.62 1.63 1.71 1.74 1.70 1.72 1.60 1.73 2.07 2.15 2.42 2.64 2.69
0.15 0.23 0.29 0.26 0.15 0.14 0.23 0.65 0.82 0.64 0.85 1.15 1.34 1.57 1.99 2.36 2.70 3.34 3.99 4.79 5.39 5.91 5.73 5.10 4.92 4.69 4.02 3.30 2.69 2.28 1.99 1.91 1.78 1.68 1.59 1.50 1.43 1.41 1.55 1.66 1.70 1.44 1.44 1.53 1.42 1.82 2.06 2.32 2.41
0.13 0.15 0.23 0.32 0.22 0.22 0.30 0.50 0.79 0.84 1.04 1.32 1.42 1.53 1.79 1.98 2.30 2.81 3.32 3.76 4.35 4.86 4.76 4.71 4.82 4.40 3.80 3.16 2.68 2.40 2.12 1.83 1.64 1.61 1.61 1.50 1.46 1.47 1.64 1.50 1.48 1.35 1.56 1.75 1.83 2.11 2.05 2.00 2.06
0.10 0.12 0.19 0.26 0.22 0.28 0.41 0.54 0.78 0.94 1.18 1.40 1.42 1.36 1.41 1.63 1.91 2.20 2.58 2.93 3.14 3.30 3.40 3.71 3.94 3.69 3.23 2.81 2.32 2.14 2.08 1.88 1.65 1.49 1.38 1.46 1.42 1.60 1.79 1.56 1.82 1.61 1.60 1.69 1.72 1.87 1.86 1.71 1.67
0.09 0.11 0.19 0.24 0.20 0.25 0.40 0.69 0.87 0.95 0.99 1.11 1.23 1.15 1.20 1.45 1.50 1.59 1.78 2.12 2.25 2.44 2.75 3.11 3.36 3.20 2.67 2.45 2.26 2.12 2.06 1.92 1.86 1.70 1.61 1.43 1.41 1.51 1.46 1.75 1.62 1.64 1.76 1.79 1.85 1.97 1.98 1.77 1.72
0.09 0.10 0.13 0.18 0.19 0.29 0.43 0.95 1.06 0.95 0.86 0.79 0.94 0.99 0.95 1.09 1.22 1.27 1.26 1.43 1.77 2.27 2.43 2.37 2.61 2.80 2.55 2.44 2.36 2.26 2.18 1.97 2.02 1.94 1.78 1.44 1.30 1.34 1.41 1.46 1.51 1.73 1.57 1.84 2.04 1.99 2.05 2.05 1.89
0.08 0.08 0.08 0.10 0.15 0.42 0.53 1.00 1.10 0.96 0.95 0.77 0.75 0.78 0.72 0.68 0.83 1.00 0.99 1.10 1.32 1.60 1.87 2.08 2.33 2.51 2.44 2.33 2.13 1.96 1.78 1.69 1.69 1.72 1.72 1.58 1.46 1.31 1.32 1.34 1.54 1.73 1.56 1.96 1.65 1.74 1.98 2.11 1.95
0.04 0.04 0.06 0.11 0.19 0.39 0.51 0.88 1.08 0.89 1.02 0.80 0.53 0.42 0.38 0.38 0.48 0.67 0.78 0.89 0.94 1.13 1.52 1.94 2.28 2.52 2.40 2.10 1.93 1.93 1.82 1.78 1.70 1.64 1.83 1.72 1.63 1.43 1.25 1.35 1.53 1.61 1.55 1.69 1.75 2.03 1.94 1.88 1.87
0.03 0.05 0.13 0.23 0.39 0.74 0.71 0.75 1.02 0.79 0.60 0.46 0.36 0.28 0.27 0.30 0.35 0.46 0.54 0.67 0.79 0.93 1.19 1.55 1.86 2.09 2.10 1.96 1.87 1.91 1.93 1.89 1.76 1.57 1.59 1.50 1.51 1.46 1.36 1.44 1.55 1.54 1.49 1.60 1.67 1.84 1.83 1.91 1.98
0.03 0.05 0.22 0.46 0.73 0.91 0.58 0.75 1.09 0.66 0.48 0.37 0.32 0.27 0.25 0.23 0.31 0.43 0.51 0.60 0.67 0.71 0.90 1.19 1.39 1.54 1.74 1.85 1.84 1.80 1.91 1.91 1.71 1.52 1.49 1.50 1.37 1.32 1.35 1.47 1.68 1.62 1.63 1.65 1.81 1.82 1.76 1.84 1.88
0.03 0.04 0.10 0.19 0.33 0.51 0.58 1.19 1.04 0.49 0.34 0.29 0.26 0.26 0.22 0.22 0.26 0.40 0.50 0.54 0.55 0.56 0.73 0.89 1.07 1.28 1.52 1.67 1.73 1.71 1.65 1.54 1.51 1.60 1.51 1.46 1.44 1.40 1.34 1.46 1.51 1.54 1.62 1.64 1.99 1.79 1.67 1.73 1.70
0.03 0.04 0.06 0.08 0.12 0.34 0.67 0.85 0.59 0.32 0.29 0.31 0.28 0.28 0.27 0.29 0.36 0.42 0.53 0.55 0.47 0.49 0.59 0.66 0.85 1.05 1.19 1.40 1.52 1.46 1.49 1.39 1.40 1.47 1.43 1.39 1.51 1.51 1.46 1.39 1.41 1.49 1.63 1.78 1.92 1.80 1.79 1.82 1.63
0.03 0.03 0.04 0.04 0.08 0.24 0.51 0.75 0.78 0.51 0.39 0.34 0.34 0.35 0.34 0.38 0.48 0.52 0.51 0.54 0.48 0.47 0.57 0.65 0.81 0.93 1.00 1.17 1.25 1.17 1.37 1.42 1.54 1.50 1.41 1.35 1.35 1.40 1.46 1.47 1.44 1.53 1.61 1.77 1.90 1.90 1.99 2.02 1.84
0.05 0.04 0.03 0.04 0.05 0.12 0.36 0.54 0.58 0.54 0.49 0.37 0.33 0.39 0.46 0.45 0.56 0.55 0.51 0.54 0.52 0.53 0.59 0.65 0.79 0.89 0.95 1.09 1.15 1.20 1.29 1.36 1.43 1.45 1.46 1.44 1.41 1.43 1.45 1.50 1.54 1.56 1.61 1.77 1.87 1.77 1.97 2.08 2.11
0.07 0.08 0.08 0.07 0.06 0.08 0.16 0.31 0.32 0.37 0.43 0.37 0.37 0.46 0.51 0.39 0.42 0.50 0.53 0.60 0.52 0.55 0.59 0.63 0.72 0.81 0.88 1.07 1.22 1.27 1.39 1.44 1.39 1.40 1.59 1.63 1.59 1.56 1.55 1.59 1.69 1.67 1.70 1.80 1.77 1.64 1.72 1.90 2.08